FW8367 Weather Reports


time (UTC)temp
C
wind
direction
speed
KPH
gust
KPH
rain 1hr
cm
rain 24hr
cm
rain mn
cm
humidity
%
barometer
mb
20260510105000 10 208 9.7 25.7 0.00 0.30 0.30 88 1006.9
20260510104501 10 216 9.7 19.3 0.00 0.30 0.30 90 1006.7
20260510104000 10 222 9.7 19.3 0.00 0.30 0.30 90 1006.6
20260510103500 10 196 9.7 19.3 0.00 0.30 0.30 91 1006.6
20260510103000 10 223 9.7 19.3 0.00 0.30 0.30 91 1006.4
20260510102500 10 229 9.7 16.1 0.00 0.30 0.30 91 1006.2
20260510102000 10 188 9.7 19.3 0.00 0.30 0.30 91 1006.3
20260510101501 10 224 9.7 19.3 0.00 0.30 0.30 91 1006.3
20260510101001 10 239 11.3 19.3 0.00 0.30 0.30 91 1006.1
20260510100003 10 238 11.3 19.3 0.00 0.30 0.30 93 1005.9
20260510095500 10 211 11.3 19.3 0.00 0.30 0.30 94 1006.3
20260510095000 10 241 11.3 19.3 0.00 0.30 0.30 94 1006.2
20260510093500 10 221 9.7 22.5 0.00 0.30 0.30 94 1005.8
20260510093000 10 233 8.0 17.7 0.00 0.30 0.30 95 1005.7
20260510092500 10 250 6.4 17.7 0.00 0.30 0.30 95 1005.8
20260510092000 10 215 6.4 14.5 0.00 0.30 0.30 95 1005.7
20260510091500 10 232 4.8 12.9 0.00 0.30 0.30 94 1005.5
20260510091000 10 221 6.4 12.9 0.00 0.30 0.30 94 1005.6
20260510090501 10 223 6.4 12.9 0.00 0.30 0.30 94 1005.5
20260510090004 10 209 6.4 12.9 0.00 0.30 0.30 94 1005.5
20260510085500 10 213 8.0 12.9 0.00 0.30 0.30 94 1005.5
20260510085000 10 229 8.0 12.9 0.00 0.30 0.30 94 1005.4
20260510084500 10 225 8.0 12.9 0.00 0.30 0.30 95 1005.4
20260510083501 10 221 6.4 14.5 0.00 0.30 0.30 95 1005.3
20260510083000 10 219 8.0 14.5 0.00 0.30 0.30 95 1005.2
20260510082500 10 194 6.4 12.9 0.00 0.30 0.30 95 1005.1
20260510082000 10 218 6.4 12.9 0.00 0.30 0.30 95 1005.2
20260510081501 10 234 6.4 14.5 0.00 0.30 0.30 95 1005.1
20260510081001 10 213 6.4 14.5 0.00 0.30 0.30 95 1005.1
20260510080500 10 215 6.4 14.5 0.00 0.30 0.30 96 1005.1
20260510080004 10 215 4.8 12.9 0.00 0.30 0.30 95 1005.1
20260510075500 10 227 3.2 6.4 0.00 0.30 0.30 95 1005.1
20260510075000 10 228 3.2 6.4 0.00 0.30 0.30 95 1005.0
20260510074000 9 206 1.6 3.2 0.00 0.30 0.30 94 1005.0
20260510073501 9 176 3.2 4.8 0.00 0.30 0.30 95 1004.8
20260510073002 9 176 3.2 4.8 0.00 0.30 0.30 94 1004.8
20260510072500 10 153 3.2 4.8 0.00 0.30 0.30 94 1004.7
20260510072000 10 151 3.2 4.8 0.00 0.30 0.30 94 1004.7
20260510071000 10 184 3.2 6.4 0.00 0.30 0.30 94 1004.8
20260510070500 10 175 3.2 8.0 0.00 0.30 0.30 94 1004.8
20260510070004 10 163 3.2 8.0 0.00 0.30 0.30 94 1004.8
20260510065500 10 166 4.8 9.7 0.00 0.30 0.30 94 1004.8
20260510065000 10 192 4.8 9.7 0.00 0.30 0.30 94 1004.8
20260510064500 10 182 4.8 9.7 0.00 0.30 0.30 94 1004.8
20260510064000 10 214 4.8 11.3 0.00 0.30 0.30 94 1004.7
20260510063500 10 190 4.8 11.3 0.00 0.30 0.30 94 1004.6
20260510063001 10 192 6.4 11.3 0.03 0.30 0.30 94 1004.7
20260510062501 10 199 6.4 11.3 0.05 0.30 0.30 94 1004.6
20260510061500 10 205 9.7 16.1 0.10 0.30 0.30 94 1004.6
20260510061001 10 207 9.7 19.3 0.13 0.30 0.30 94 1004.5
20260510055500 10 148 8.0 14.5 0.20 0.30 0.30 94 1004.2
20260510054500 10 133 9.7 17.7 0.25 0.30 0.30 94 1004.1
20260510054000 10 178 11.3 19.3 0.30 0.30 0.30 94 1004.3
20260510053500 10 157 11.3 19.3 0.30 0.30 0.30 94 1004.4
20260510053000 10 135 11.3 19.3 0.28 0.28 0.28 93 1004.4
20260510052500 10 147 9.7 19.3 0.25 0.25 0.25 93 1004.7
20260510052000 10 166 8.0 16.1 0.23 0.23 0.23 92 1004.8
20260510051500 10 191 8.0 12.9 0.20 0.20 0.20 92 1004.9
20260510051000 10 173 8.0 16.1 0.18 0.18 0.18 91 1005.0
20260510050501 10 192 6.4 16.1 0.18 0.18 0.18 91 1004.9
20260510050005 10 172 6.4 12.9 0.15 0.15 0.15 90 1004.9
20260510045503 10 226 8.0 12.9 0.10 0.10 0.10 89 1005.1
20260510045004 10 196 8.0 12.9 0.08 0.08 0.08 89 1005.1
20260510044503 10 170 8.0 12.9 0.05 0.05 0.05 88 1005.1
20260510044003 10 188 9.7 14.5 0.00 0.00 0.00 87 1005.1
20260510043502 10 147 9.7 16.1 0.00 0.00 0.00 86 1005.0
20260510043004 10 171 9.7 19.3 0.00 0.00 0.00 85 1004.7
20260510042502 10 174 11.3 19.3 0.00 0.00 0.00 85 1004.5
20260510042002 10 201 11.3 20.9 0.00 0.00 0.00 85 1004.5
20260510041504 10 184 11.3 20.9 0.00 0.00 0.00 85 1004.4
20260510041002 10 167 12.9 20.9 0.00 0.00 0.00 85 1004.4
20260510040006 10 164 12.9 29.0 0.00 0.00 0.00 84 1004.5
20260510035503 10 170 11.3 25.7 0.00 0.00 0.00 84 1004.3
20260510035003 10 185 11.3 24.1 0.00 0.00 0.00 84 1004.2
20260510034503 10 146 12.9 24.1 0.00 0.00 0.00 84 1004.3
20260510033503 10 156 14.5 27.4 0.00 0.00 0.00 84 1004.3
20260510033004 10 168 12.9 27.4 0.00 0.00 0.00 84 1004.3
20260510032503 10 131 11.3 20.9 0.00 0.00 0.00 84 1004.5
20260510032003 10 129 11.3 20.9 0.00 0.00 0.00 84 1004.5
20260510031003 10 152 9.7 17.7 0.00 0.00 0.00 85 1004.6
20260510030503 10 159 9.7 16.1 0.00 0.00 0.00 85 1004.6
20260510030006 10 127 9.7 19.3 0.00 0.00 0.00 85 1004.6
20260510025003 10 152 12.9 24.1 0.00 0.00 0.00 84 1004.6
20260510024503 10 155 11.3 24.1 0.00 0.00 0.00 84 1004.7
20260510023503 10 129 9.7 17.7 0.00 0.00 0.00 84 1005.0
20260510023004 10 152 11.3 22.5 0.00 0.00 0.00 84 1005.1
20260510022003 10 162 11.3 25.7 0.00 0.00 0.00 84 1005.0
20260510021503 10 131 12.9 25.7 0.00 0.00 0.00 84 1005.1
20260510021003 10 136 11.3 19.3 0.00 0.00 0.00 84 1005.0
20260510020502 10 121 8.0 17.7 0.00 0.00 0.00 84 1005.1
20260510020005 10 125 6.4 16.1 0.00 0.00 0.00 84 1005.2
20260510015503 10 109 8.0 17.7 0.00 0.00 0.00 84 1005.3
20260510015003 10 169 9.7 17.7 0.00 0.00 0.00 83 1005.4
20260510014503 10 148 8.0 17.7 0.00 0.00 0.00 83 1005.4
20260510014002 10 167 8.0 17.7 0.00 0.00 0.00 83 1005.4
20260510013503 11 164 6.4 16.1 0.00 0.00 0.00 83 1005.3
20260510013003 11 153 6.4 16.1 0.00 0.00 0.00 82 1005.6
20260510012503 11 150 4.8 11.3 0.00 0.00 0.00 82 1005.6
20260510012003 11 158 4.8 14.5 0.00 0.00 0.00 82 1005.6
20260510011503 11 135 6.4 14.5 0.00 0.00 0.00 82 1005.6
20260510011002 11 191 6.4 12.9 0.00 0.00 0.00 82 1005.6
20260510010503 11 164 4.8 12.9 0.00 0.00 0.00 81 1005.6
20260510010004 11 127 8.0 17.7 0.00 0.00 0.00 81 1005.7
20260510005502 11 126 9.7 17.7 0.00 0.00 0.00 81 1005.6
20260510005001 11 181 8.0 19.3 0.00 0.00 0.00 80 1005.5
20260510003501 11 140 8.0 14.5 0.00 0.00 0.00 79 1005.2
20260510003003 11 159 9.7 24.1 0.00 0.00 0.00 79 1005.3
20260510002501 11 130 11.3 24.1 0.00 0.00 0.00 79 1005.4
20260510002002 11 159 11.3 19.3 0.00 0.00 0.00 78 1005.4
20260510001502 12 131 11.3 27.4 0.00 0.00 0.00 78 1005.3
20260510000501 12 92 11.3 22.5 0.00 0.00 0.00 77 1005.3
20260510000006 12 116 11.3 19.3 0.00 0.00 0.00 76 1005.3
20260509235502 12 165 11.3 22.5 0.00 0.00 0.00 76 1005.3
20260509235001 12 186 14.5 30.6 0.00 0.00 0.00 76 1005.1
20260509234502 12 158 16.1 30.6 0.00 0.00 0.00 75 1004.9
20260509234001 12 114 14.5 27.4 0.00 0.00 0.00 74 1004.9
20260509233502 12 100 11.3 24.1 0.00 0.00 0.00 74 1005.1
20260509233003 12 146 11.3 25.7 0.00 0.00 0.00 73 1005.1
20260509232502 13 121 14.5 29.0 0.00 0.00 0.00 73 1005.2
20260509232001 13 119 12.9 29.0 0.00 0.00 0.00 72 1005.1
20260509231502 13 113 12.9 25.7 0.00 0.00 0.00 71 1005.1
20260509231001 13 82 14.5 25.7 0.00 0.00 0.00 70 1005.1
20260509230502 13 98 14.5 27.4 0.00 0.00 0.00 69 1005.2
20260509230006 13 82 14.5 25.7 0.00 0.00 0.00 69 1005.1
20260509225001 14 121 12.9 25.7 0.00 0.00 0.00 67 1005.2
20260509224502 14 142 12.9 24.1 0.00 0.00 0.00 67 1005.3
20260509224001 14 108 14.5 30.6 0.00 0.00 0.00 67 1005.5
20260509223502 14 136 14.5 30.6 0.00 0.00 0.00 66 1005.6
20260509223002 15 163 14.5 30.6 0.00 0.00 0.00 65 1005.4
20260509222501 15 139 16.1 30.6 0.00 0.00 0.00 65 1005.4
20260509222002 15 147 14.5 29.0 0.00 0.00 0.00 64 1005.4
20260509221501 15 148 16.1 29.0 0.00 0.00 0.00 63 1005.4
20260509220004 15 153 12.9 25.7 0.00 0.00 0.00 61 1005.4
20260509215504 15 136 12.9 24.1 0.00 0.00 0.00 60 1005.4
20260509215002 15 128 16.1 29.0 0.00 0.00 0.00 59 1005.4
20260509214502 15 148 17.7 29.0 0.00 0.00 0.00 58 1005.4
20260509214001 15 153 17.7 33.8 0.00 0.00 0.00 58 1005.1
20260509213502 15 121 19.3 33.8 0.00 0.00 0.00 57 1005.1
20260509213002 15 140 17.7 30.6 0.00 0.00 0.00 57 1005.1
20260509212001 16 173 16.1 37.0 0.00 0.00 0.00 55 1005.3
20260509211503 16 161 17.7 37.0 0.00 0.00 0.00 54 1005.4
20260509211001 16 181 19.3 35.4 0.00 0.00 0.00 54 1005.4
20260509210502 16 143 17.7 33.8 0.00 0.00 0.00 52 1005.5
20260509205001 16 151 19.3 30.6 0.00 0.00 0.00 46 1005.3
20260509204502 16 113 19.3 33.8 0.00 0.00 0.00 46 1005.4
20260509204002 16 174 17.7 33.8 0.00 0.00 0.00 45 1005.4
20260509203002 16 166 19.3 32.2 0.00 0.00 0.00 42 1005.4
20260509202001 17 156 19.3 33.8 0.00 0.00 0.00 42 1005.4
20260509201502 17 152 19.3 38.6 0.00 0.00 0.00 40 1005.6
20260509201002 17 147 16.1 38.6 0.00 0.00 0.00 39 1005.6
20260509200501 17 121 19.3 29.0 0.00 0.00 0.00 37 1005.6
20260509200005 17 173 20.9 37.0 0.00 0.00 0.00 38 1005.7
20260509195501 17 148 19.3 37.0 0.00 0.00 0.00 36 1005.8
20260509195002 17 135 17.7 30.6 0.00 0.00 0.00 36 1005.8
20260509194502 17 150 17.7 33.8 0.00 0.00 0.00 36 1005.9
20260509194002 17 150 17.7 33.8 0.00 0.00 0.00 35 1005.9
20260509193501 17 167 19.3 32.2 0.00 0.00 0.00 35 1006.0
20260509193002 17 137 17.7 32.2 0.00 0.00 0.00 31 1006.0
20260509192501 17 149 16.1 30.6 0.00 0.00 0.00 33 1006.0
20260509192002 17 152 17.7 35.4 0.00 0.00 0.00 35 1006.1
20260509191502 17 146 17.7 35.4 0.00 0.00 0.00 32 1006.1
20260509191001 17 115 17.7 32.2 0.00 0.00 0.00 30 1006.1
20260509190502 17 136 16.1 32.2 0.00 0.00 0.00 30 1006.2
20260509185501 17 143 17.7 30.6 0.00 0.00 0.00 32 1006.5
20260509185001 17 144 17.7 30.6 0.00 0.00 0.00 30 1006.6
20260509184001 17 207 14.5 29.0 0.00 0.00 0.00 33 1006.6
20260509183501 17 140 17.7 30.6 0.00 0.00 0.00 31 1006.6
20260509183002 17 180 19.3 32.2 0.00 0.00 0.00 31 1006.6
20260509182501 17 154 20.9 32.2 0.00 0.00 0.00 29 1006.7
20260509181502 17 148 17.7 32.2 0.00 0.00 0.00 29 1006.7
20260509181002 17 174 17.7 32.2 0.00 0.00 0.00 30 1006.8
20260509180005 17 117 19.3 30.6 0.00 0.00 0.00 30 1006.9
20260509175002 17 165 17.7 38.6 0.00 0.00 0.00 30 1007.1
20260509174502 17 147 16.1 38.6 0.00 0.00 0.00 30 1007.1
20260509174001 17 160 16.1 33.8 0.00 0.00 0.00 29 1007.1
20260509173002 17 148 14.5 30.6 0.00 0.00 0.00 29 1007.6
20260509172502 17 130 14.5 25.7 0.00 0.00 0.00 30 1007.6
20260509170501 17 125 14.5 24.1 0.00 0.00 0.00 32 1007.9
20260509165501 17 135 12.9 27.4 0.00 0.00 0.00 33 1008.1
20260509165002 17 129 12.9 27.4 0.00 0.00 0.00 32 1008.2
20260509164502 17 138 12.9 27.4 0.00 0.00 0.00 34 1008.3
20260509164001 17 128 11.3 20.9 0.00 0.00 0.00 31 1008.4
20260509163501 17 186 9.7 20.9 0.00 0.00 0.00 32 1008.6
20260509163002 17 140 11.3 22.5 0.00 0.00 0.00 31 1008.6
20260509162501 16 144 11.3 24.1 0.00 0.00 0.00 34 1008.6
20260509161501 16 167 12.9 27.4 0.00 0.00 0.00 32 1008.8
20260509161001 16 149 11.3 27.4 0.00 0.00 0.00 32 1008.9
20260509160501 16 150 11.3 24.1 0.00 0.00 0.00 33 1009.0
20260509160004 16 174 9.7 24.1 0.00 0.00 0.00 35 1009.1
20260509155501 16 158 9.7 17.7 0.00 0.00 0.00 35 1009.1
20260509155001 16 173 11.3 17.7 0.00 0.00 0.00 36 1009.3
20260509154502 15 174 12.9 20.9 0.00 0.00 0.00 36 1009.4
20260509154001 15 143 12.9 19.3 0.00 0.00 0.00 36 1009.5
20260509153501 15 162 14.5 20.9 0.00 0.00 0.00 37 1009.5
20260509153002 15 163 14.5 25.7 0.00 0.00 0.00 37 1009.6
20260509152501 15 171 11.3 25.7 0.00 0.00 0.00 36 1009.6
20260509152001 15 104 11.3 20.9 0.00 0.00 0.00 37 1009.6
20260509151502 15 150 11.3 20.9 0.00 0.00 0.00 39 1009.7
20260509150501 15 131 11.3 19.3 0.00 0.00 0.00 41 1009.8
20260509145502 14 123 11.3 17.7 0.00 0.00 0.00 44 1009.8
20260509145002 14 144 9.7 17.7 0.00 0.00 0.00 45 1009.8
20260509144002 13 165 8.0 16.1 0.00 0.00 0.00 44 1009.9
20260509143501 13 104 8.0 16.1 0.00 0.00 0.00 45 1010.0
20260509143001 13 144 8.0 16.1 0.00 0.00 0.00 45 1010.0
20260509142501 13 188 8.0 16.1 0.00 0.00 0.00 45 1010.1
20260509141502 13 167 9.7 17.7 0.00 0.00 0.00 46 1010.1
20260509141001 13 113 8.0 16.1 0.00 0.00 0.00 46 1010.2
20260509140501 13 205 8.0 16.1 0.00 0.00 0.00 45 1010.2
20260509140005 13 148 8.0 16.1 0.00 0.00 0.00 46 1010.2
20260509135500 12 144 8.0 16.1 0.00 0.00 0.00 46 1010.2
20260509135000 12 114 6.4 12.9 0.00 0.00 0.00 46 1010.2
20260509134000 12 191 4.8 11.3 0.00 0.00 0.00 49 1010.2
20260509133500 12 126 3.2 9.7 0.00 0.00 0.00 50 1010.2
20260509133002 11 91 3.2 8.0 0.00 0.00 0.00 52 1010.3
20260509132500 11 88 4.8 11.3 0.00 0.00 0.00 52 1010.4
20260509132000 11 112 8.0 11.3 0.00 0.00 0.00 53 1010.4
20260509131502 10 155 8.0 11.3 0.00 0.00 0.00 52 1010.4
20260509131000 10 157 6.4 12.9 0.00 0.00 0.00 51 1010.4
20260509130500 10 81 6.4 12.9 0.00 0.00 0.00 53 1010.4
20260509130002 10 146 6.4 12.9 0.00 0.00 0.00 53 1010.5
20260509125500 10 136 4.8 11.3 0.00 0.00 0.00 54 1010.5
20260509125000 10 163 3.2 9.7 0.00 0.00 0.00 56 1010.5
20260509124500 9 87 4.8 9.7 0.00 0.00 0.00 59 1010.5
20260509124000 8 163 4.8 9.7 0.00 0.00 0.00 59 1010.6
20260509123501 8 134 3.2 8.0 0.00 0.00 0.00 60 1010.6
20260509122000 8 138 3.2 8.0 0.00 0.00 0.00 60 1010.6
20260509121000 7 106 3.2 9.7 0.00 0.00 0.00 63 1010.8
20260509120501 7 154 4.8 9.7 0.00 0.00 0.00 63 1010.8
20260509120005 7 107 4.8 8.0 0.00 0.00 0.00 66 1010.8
20260509115500 7 155 4.8 8.0 0.00 0.00 0.00 66 1010.7
20260509115000 7 146 3.2 9.7 0.00 0.00 0.00 69 1010.8
20260509114500 6 138 1.6 6.4 0.00 0.00 0.00 71 1010.8
20260509114000 6 186 3.2 6.4 0.00 0.00 0.00 73 1010.7
20260509113500 6 151 4.8 9.7 0.00 0.00 0.00 72 1010.7
20260509113000 5 161 4.8 9.7 0.00 0.00 0.00 72 1010.8
20260509112500 5 134 1.6 8.0 0.00 0.00 0.00 74 1010.7
20260509112000 5 152 0.0 6.4 0.00 0.00 0.00 77 1010.7
20260509111500 5 5 0.0 3.2 0.00 0.00 0.00 77 1010.7
20260509111000 5 5 0.0 3.2 0.00 0.00 0.00 77 1010.9
20260509110500 5 132 0.0 0.0 0.00 0.00 0.00 78 1010.8
20260509110003 5 132 0.0 0.0 0.00 0.00 0.00 78 1010.7